period_start,C,m1,H,J0,J1,J2,J3,J4,J5,JA,JB,JC,JD,JJ,JK,JN,#
2014-10-01 00:02:31,0.13,0.99,0.00,27.10,31.44,33.83,4.74,26.03,1019.56,2019.01,3096.73,2998.39,3240.03,350.07,344.05,29.75,0000 0000 0000 0000 000000
2014-10-01 00:07:33,0.11,0.99,0.00,27.10,31.45,33.84,4.70,26.19,1019.57,2019.00,3095.41,2997.40,3238.91,349.34,343.34,29.78,0000 0000 0000 0000 000000
2014-10-01 00:12:34,0.14,1.00,0.00,27.12,31.45,33.84,4.74,26.05,1019.56,2019.01,3093.78,2996.34,3237.75,350.10,343.90,29.81,0000 0000 0000 0000 000000
2014-10-01 00:17:35,0.12,1.00,0.00,27.12,31.45,33.85,4.69,26.09,1019.55,2019.00,3092.31,2995.31,3236.58,349.71,343.59,29.84,0000 0000 0000 0000 000000
2014-10-01 00:22:36,0.13,1.00,0.00,27.12,31.47,33.85,4.71,26.13,1019.56,2019.00,3090.71,2994.36,3235.50,349.77,343.76,29.87,0000 0000 0000 0000 000000
2014-10-01 00:27:38,0.12,1.01,0.00,27.13,31.47,33.87,4.72,26.21,1019.58,2019.00,3089.10,2993.16,3234.25,349.99,343.89,29.90,0000 0000 0000 0000 000000
2014-10-01 00:32:39,0.14,1.01,0.00,27.12,31.47,33.87,4.68,26.22,1019.56,2019.00,3087.39,2991.96,3232.92,349.78,343.60,29.93,0000 0000 0000 0000 000000
2014-10-01 00:37:40,0.15,1.02,0.00,27.12,31.48,33.88,4.76,26.16,1019.56,2019.00,3085.65,2990.85,3231.65,350.53,344.27,29.96,0000 0000 0000 0000 000000
2014-10-01 00:42:41,0.13,1.02,0.00,27.14,31.49,33.88,4.75,26.15,1019.55,2019.00,3084.12,2989.76,3230.47,350.52,344.44,29.99,0000 0000 0000 0000 000000
2014-10-01 00:47:43,0.14,1.03,0.00,27.15,31.50,33.89,4.68,26.14,1019.58,2019.00,3082.50,2988.66,3229.27,349.61,343.60,30.02,0000 0000 0000 0000 000000
2014-10-01 00:52:44,0.13,1.03,0.00,27.15,31.50,33.89,4.74,26.24,1019.65,2019.00,3080.80,2987.60,3227.97,349.96,343.99,30.05,0000 0000 0000 0000 000000
2014-10-01 00:57:45,0.14,1.03,0.00,27.17,31.50,33.88,4.75,26.20,1019.73,2018.99,3079.08,2986.40,3226.68,350.11,344.05,30.08,0000 0000 0000 0000 000000
2014-10-01 01:02:47,0.13,1.04,0.00,27.17,31.51,33.88,4.70,26.05,1019.78,2018.98,3077.39,2985.21,3225.34,349.95,343.77,30.11,0000 0000 0000 0000 000000
2014-10-01 01:07:48,0.12,1.04,0.00,27.17,31.52,33.89,4.69,26.19,1019.66,2018.98,3075.93,2984.15,3224.24,350.03,343.91,30.13,0000 0000 0000 0000 000000
2014-10-01 01:12:49,0.14,1.05,0.00,27.19,31.52,33.91,4.70,26.14,1019.91,2018.97,3074.29,2983.03,3222.96,349.87,343.62,30.16,0000 0000 0000 0000 000000
2014-10-01 01:17:50,0.14,1.05,0.00,27.20,31.52,33.91,4.73,26.13,1020.02,2018.96,3072.62,2981.90,3221.68,350.41,344.45,30.19,0000 0000 0000 0000 000000
2014-10-01 01:22:52,0.12,1.05,0.00,27.19,31.53,33.94,4.71,26.11,1020.02,2018.95,3071.16,2980.83,3220.54,349.91,344.07,30.22,0000 0000 0000 0000 000000
2014-10-01 01:27:53,0.13,1.06,0.00,27.18,31.55,33.93,4.69,26.14,1020.03,2018.98,3069.73,2979.82,3219.35,350.01,344.01,30.25,0000 0000 0000 0000 000000
2014-10-01 01:32:54,0.11,1.06,0.00,27.17,31.55,33.94,4.70,26.08,1020.03,2018.97,3068.20,2978.82,3218.22,349.99,343.88,30.28,0000 0000 0000 0000 000000
2014-10-01 01:37:55,0.15,1.07,0.00,27.18,31.55,33.96,4.71,26.18,1020.04,2018.96,3066.61,2977.68,3217.01,350.33,344.27,30.31,0000 0000 0000 0000 000000
2014-10-01 01:42:56,0.13,1.07,0.00,27.21,31.55,33.96,4.67,26.07,1020.04,2018.90,3064.94,2976.55,3215.71,350.25,344.25,30.34,0000 0000 0000 0000 000000
2014-10-01 01:47:58,0.10,1.07,0.00,27.22,31.55,33.96,4.74,26.19,1020.04,2018.81,3063.36,2975.44,3214.46,350.28,344.14,30.37,0000 0000 0000 0000 000000
2014-10-01 01:52:59,0.13,1.08,0.00,27.24,31.56,33.96,4.80,26.23,1020.04,2018.77,3061.72,2974.26,3213.23,350.35,344.16,30.40,0000 0000 0000 0000 000000
2014-10-01 01:58:00,0.12,1.08,0.00,27.27,31.57,33.96,4.72,26.27,1020.04,2018.67,3060.05,2973.14,3211.96,349.68,343.55,30.43,0000 0000 0000 0000 000000
2014-10-01 02:03:01,0.11,1.08,0.00,27.27,31.57,33.96,4.72,26.19,1020.04,2018.41,3058.30,2971.98,3210.62,349.95,343.59,30.46,0000 0000 0000 0000 000000
2014-10-01 02:08:03,0.16,1.09,0.00,27.28,31.57,33.97,4.70,26.12,1020.04,2018.62,3056.74,2970.93,3209.50,350.27,344.02,30.49,0000 0000 0000 0000 000000
2014-10-01 02:13:04,0.09,1.09,0.00,27.30,31.57,33.97,4.78,26.20,1020.04,2018.41,3055.20,2969.76,3208.27,350.22,344.15,30.52,0000 0000 0000 0000 000000
2014-10-01 02:18:05,0.12,1.10,0.00,27.29,31.59,33.99,4.70,26.08,1020.04,2018.35,3053.66,2968.73,3207.02,349.48,343.33,30.54,0000 0000 0000 0000 000000
2014-10-01 02:23:07,0.14,1.10,0.00,27.31,31.60,34.00,4.72,26.12,1020.04,2018.33,3052.11,2967.61,3205.89,349.64,343.55,30.57,0000 0000 0000 0000 000000
2014-10-01 02:28:08,0.14,1.10,0.00,27.35,31.60,33.99,4.74,26.23,1020.04,2018.31,3050.49,2966.51,3204.67,349.75,343.53,30.60,0000 0000 0000 0000 000000
2014-10-01 02:33:09,0.13,1.11,0.00,27.37,31.60,33.99,4.68,26.27,1020.04,2018.32,3048.90,2965.43,3203.44,349.70,343.58,30.63,0000 0000 0000 0000 000000
2014-10-01 02:38:11,0.12,1.11,0.00,27.38,31.60,33.99,4.79,26.25,1020.05,2018.26,3047.32,2964.34,3202.27,350.21,344.01,30.66,0000 0000 0000 0000 000000
2014-10-01 02:43:12,0.10,1.12,0.00,27.41,31.62,33.99,4.72,26.32,1020.05,2018.16,3045.78,2963.29,3201.10,349.54,343.23,30.69,0000 0000 0000 0000 000000
2014-10-01 02:48:13,0.11,1.12,0.00,27.45,31.62,34.00,4.68,26.25,1020.05,2018.07,3044.33,2962.24,3199.85,349.77,343.55,30.72,0000 0000 0000 0000 000000
2014-10-01 02:53:14,0.12,1.12,0.00,27.47,31.63,34.02,4.72,26.25,1020.05,2018.03,3042.77,2961.12,3198.76,350.16,343.74,30.75,0000 0000 0000 0000 000000
2014-10-01 02:58:16,0.14,1.13,0.00,27.51,31.65,34.03,4.74,26.23,1020.05,2018.01,3041.11,2959.97,3197.51,349.96,343.66,30.78,0000 0000 0000 0000 000000
2014-10-01 03:03:17,0.13,1.13,0.00,27.55,31.65,34.02,4.71,26.21,1020.07,2018.00,3039.50,2958.87,3196.29,349.79,343.39,30.81,0000 0000 0000 0000 000000
2014-10-01 03:08:18,0.13,1.13,0.00,27.55,31.67,34.05,4.70,26.12,1020.10,2018.00,3037.98,2957.80,3195.09,349.60,343.17,30.84,0000 0000 0000 0000 000000
2014-10-01 03:13:19,0.15,1.14,0.00,27.57,31.68,34.07,4.70,26.05,1020.11,2018.00,3036.42,2956.68,3193.79,349.76,343.49,30.87,0000 0000 0000 0000 000000
2014-10-01 03:18:21,0.14,1.14,0.00,27.60,31.70,34.06,4.77,26.22,1020.17,2018.00,3034.79,2955.57,3192.59,350.26,343.80,30.90,0000 0000 0000 0000 000000
2014-10-01 03:23:22,0.13,1.15,0.00,27.61,31.72,34.08,4.69,26.10,1020.16,2018.00,3033.13,2954.39,3191.34,349.93,343.39,30.93,0000 0000 0000 0000 000000
2014-10-01 03:28:23,0.13,1.15,0.00,27.64,31.73,34.10,4.62,26.09,1020.23,2018.00,3031.50,2953.24,3190.01,349.84,343.38,30.95,0000 0000 0000 0000 000000
2014-10-01 03:33:24,0.15,1.16,0.00,27.67,31.75,34.12,4.72,26.23,1020.27,2017.98,3029.79,2951.98,3188.63,350.01,343.46,30.98,0000 0000 0000 0000 000000
2014-10-01 03:38:25,0.15,1.16,0.00,27.69,31.77,34.15,4.69,26.20,1020.32,2017.95,3028.09,2950.68,3187.30,350.45,343.74,31.01,0000 0000 0000 0000 000000
2014-10-01 03:43:27,0.10,1.16,0.00,27.75,31.79,34.17,4.75,26.05,1020.46,2017.76,3026.38,2949.46,3185.84,350.10,343.59,31.04,0000 0000 0000 0000 000000
2014-10-01 03:48:28,0.09,1.17,0.00,27.77,31.81,34.17,4.70,26.21,1020.51,2017.41,3024.69,2948.28,3184.55,349.94,343.51,31.07,0000 0000 0000 0000 000000
2014-10-01 03:53:30,0.12,1.17,0.00,27.78,31.83,34.20,4.63,26.08,1020.52,2017.31,3023.03,2947.13,3183.31,349.42,342.96,31.10,0000 0000 0000 0000 000000
2014-10-01 03:58:31,0.14,1.17,0.00,27.81,31.85,34.22,4.69,26.15,1020.52,2017.11,3021.29,2945.76,3181.80,349.72,343.02,31.13,0000 0000 0000 0000 000000
2014-10-01 04:03:32,0.14,1.18,0.00,27.85,31.87,34.24,4.71,26.00,1020.52,2017.01,3019.60,2944.52,3180.40,350.26,343.61,31.16,0000 0000 0000 0000 000000
2014-10-01 04:08:34,0.15,1.18,0.00,27.86,31.90,34.27,4.77,26.04,1020.52,2017.00,3017.81,2943.40,3179.01,350.47,343.85,31.19,0000 0000 0000 0000 000000
2014-10-01 04:13:35,0.14,1.19,0.00,27.90,31.92,34.29,4.72,26.10,1020.53,2017.00,3016.18,2942.08,3177.63,350.07,343.25,31.22,0000 0000 0000 0000 000000
2014-10-01 04:18:36,0.16,1.19,0.00,27.93,31.95,34.31,4.70,26.13,1020.53,2017.00,3014.47,2940.84,3176.33,350.19,343.47,31.25,0000 0000 0000 0000 000000
2014-10-01 04:23:38,0.16,1.20,0.00,27.96,31.97,34.34,4.76,26.16,1020.53,2016.97,3012.70,2939.62,3174.87,350.46,343.73,31.28,0000 0000 0000 0000 000000
2014-10-01 04:28:39,0.14,1.20,0.00,28.01,32.00,34.40,4.72,26.14,1020.53,2016.93,3010.95,2938.37,3173.54,349.65,342.79,31.31,0000 0000 0000 0000 000000
2014-10-01 04:33:40,0.09,1.20,0.00,28.15,32.02,34.46,4.71,26.07,1020.54,2016.73,3009.35,2937.18,3172.14,350.00,343.26,31.34,0000 0000 0000 0000 000000
2014-10-01 04:38:42,0.09,1.21,0.00,28.40,32.05,34.47,4.71,26.18,1020.60,2016.33,3007.71,2935.94,3170.79,350.13,342.85,31.36,0000 0000 0000 0000 000000
2014-10-01 04:43:43,0.13,1.21,0.00,28.56,32.08,34.56,4.71,26.06,1020.84,2016.10,3006.03,2934.64,3169.35,349.95,342.75,31.39,0000 0000 0000 0000 000000
2014-10-01 04:48:44,0.13,1.21,0.00,28.59,32.12,34.65,4.71,26.13,1020.81,2016.01,3004.37,2933.33,3167.86,349.89,342.50,31.42,0000 0000 0000 0000 000000
2014-10-01 04:53:46,0.16,1.22,0.00,28.67,32.16,34.73,4.67,25.95,1020.93,2016.00,3002.63,2931.97,3166.40,350.00,342.43,31.45,0000 0000 0000 0000 000000
2014-10-01 04:58:47,0.18,1.22,0.00,28.69,32.21,34.82,4.73,25.98,1021.00,2016.00,3000.71,2930.62,3164.88,350.47,343.06,31.48,0000 0000 0000 0000 000000
2014-10-01 05:03:48,0.14,1.23,0.00,28.73,32.25,34.95,4.69,25.90,1021.01,2015.94,2998.87,2929.23,3163.34,350.09,342.66,31.51,0000 0000 0000 0000 000000
2014-10-01 05:08:49,0.09,1.23,0.00,28.80,32.30,35.04,4.68,25.96,1021.01,2015.66,2997.26,2927.99,3161.92,349.51,342.00,31.54,0000 0000 0000 0000 000000
2014-10-01 05:13:50,0.09,1.23,0.00,28.78,32.36,35.15,4.65,26.02,1021.01,2015.15,2995.58,2926.71,3160.57,349.67,342.18,31.57,0000 0000 0000 0000 000000
2014-10-01 05:18:51,0.15,1.24,0.00,28.82,32.41,35.30,4.67,26.09,1021.01,2015.00,2993.76,2925.35,3159.00,350.14,342.77,31.60,0000 0000 0000 0000 000000
2014-10-01 05:23:52,0.15,1.24,0.00,28.90,32.46,35.38,4.68,26.03,1021.01,2014.99,2992.10,2923.97,3157.59,350.06,342.46,31.63,0000 0000 0000 0000 000000
2014-10-01 05:28:54,0.10,1.25,0.00,28.84,32.51,35.50,4.71,26.00,1021.02,2014.72,2990.41,2922.65,3156.19,349.96,342.28,31.66,0000 0000 0000 0000 000000
2014-10-01 05:33:55,0.08,1.25,0.00,28.88,32.56,35.59,4.66,25.89,1021.03,2014.11,2988.62,2921.27,3154.62,349.44,341.80,31.69,0000 0000 0000 0000 000000
2014-10-01 05:38:57,0.14,1.25,0.00,28.88,32.61,35.65,4.66,26.00,1021.06,2014.00,2986.88,2919.94,3153.14,349.91,342.32,31.72,0000 0000 0000 0000 000000
2014-10-01 05:43:58,0.16,1.26,0.00,28.87,32.66,35.73,4.70,25.98,1021.16,2013.99,2985.30,2918.67,3151.76,349.97,342.43,31.75,0000 0000 0000 0000 000000
2014-10-01 05:49:00,0.14,1.26,0.00,28.91,32.70,35.77,4.76,25.96,1021.36,2013.93,2983.61,2917.42,3150.35,350.23,342.69,31.77,0000 0000 0000 0000 000000
2014-10-01 05:54:01,0.05,1.26,0.00,28.93,32.75,35.82,4.76,25.99,1021.48,2013.32,2981.78,2915.98,3148.74,349.92,342.25,31.80,0000 0000 0000 0000 000000
2014-10-01 05:59:02,0.14,1.27,0.00,28.91,32.79,35.86,4.70,26.02,1021.49,2013.01,2979.99,2914.61,3147.32,349.68,342.21,31.83,0000 0000 0000 0000 000000
2014-10-01 06:04:04,0.15,1.27,0.00,28.97,32.83,35.91,4.70,25.93,1021.50,2013.00,2978.31,2913.34,3145.81,350.04,342.49,31.86,0000 0000 0000 0000 000000
2014-10-01 06:09:05,0.15,1.28,0.00,28.95,32.87,35.91,4.74,25.96,1021.50,2012.99,2976.67,2912.09,3144.50,349.96,342.37,31.89,0000 0000 0000 0000 000000
2014-10-01 06:14:06,0.11,1.28,0.00,28.98,32.91,35.98,4.68,25.88,1021.50,2012.77,2975.09,2910.75,3143.13,350.38,342.82,31.92,0000 0000 0000 0000 000000
2014-10-01 06:19:07,0.07,1.28,0.00,28.99,32.96,36.00,4.75,25.93,1021.51,2012.22,2973.41,2909.52,3141.67,350.35,342.88,31.95,0000 0000 0000 0000 000000
2014-10-01 06:24:09,0.12,1.29,0.00,29.03,32.99,36.02,4.70,25.82,1021.51,2012.01,2971.70,2908.30,3140.36,349.63,342.05,31.98,0000 0000 0000 0000 000000
2014-10-01 06:29:10,0.16,1.29,0.00,29.07,33.02,36.03,4.70,25.88,1021.53,2012.00,2969.99,2906.95,3138.89,349.58,342.32,32.01,0000 0000 0000 0000 000000
2014-10-01 06:34:11,0.14,1.30,0.00,29.07,33.05,36.11,4.71,25.80,1021.58,2012.00,2968.36,2905.79,3137.60,349.92,342.21,32.04,0000 0000 0000 0000 000000
2014-10-01 06:39:12,0.14,1.30,0.00,29.05,33.08,36.16,4.71,25.94,1021.77,2011.98,2966.89,2904.62,3136.33,349.89,342.48,32.07,0000 0000 0000 0000 000000
2014-10-01 06:44:13,0.07,1.30,0.00,29.07,33.11,36.16,4.70,25.93,1021.98,2011.68,2965.30,2903.47,3135.05,349.58,342.15,32.10,0000 0000 0000 0000 000000
2014-10-01 06:49:15,0.07,1.30,0.00,29.05,33.14,36.16,4.70,25.98,1021.98,2011.20,2963.79,2902.27,3133.92,349.87,342.39,32.13,0000 0000 0000 0000 000000
2014-10-01 06:54:16,0.11,1.31,0.00,29.04,33.16,36.18,4.70,25.95,1021.99,2011.03,2962.33,2901.15,3132.73,350.42,342.96,32.16,0000 0000 0000 0000 000000
2014-10-01 06:59:17,0.14,1.31,0.00,29.10,33.19,36.20,4.75,26.07,1021.99,2011.01,2960.91,2900.12,3131.55,349.71,342.19,32.19,0000 0000 0000 0000 000000
2014-10-01 07:04:18,0.12,1.32,0.00,29.07,33.22,36.21,4.77,25.97,1021.99,2011.00,2959.41,2898.96,3130.25,350.48,342.99,32.21,0000 0000 0000 0000 000000
2014-10-01 07:09:19,0.11,1.32,0.00,29.04,33.24,36.25,4.70,25.85,1021.99,2010.98,2958.03,2898.01,3129.25,350.13,342.72,32.24,0000 0000 0000 0000 000000
2014-10-01 07:14:21,0.10,1.32,0.00,29.15,33.26,36.27,4.73,25.94,1021.99,2010.86,2956.67,2897.02,3128.17,349.95,342.57,32.27,0000 0000 0000 0000 000000
2014-10-01 07:19:22,0.07,1.32,0.00,29.13,33.29,36.23,4.71,25.85,1021.99,2010.56,2955.37,2896.05,3127.12,350.00,342.43,32.30,0000 0000 0000 0000 000000
2014-10-01 07:24:23,0.04,1.33,0.00,29.10,33.31,36.22,4.71,25.79,1022.01,2010.17,2954.13,2895.17,3126.13,349.63,342.19,32.33,0000 0000 0000 0000 000000
2014-10-01 07:29:24,0.10,1.33,0.00,29.02,33.32,36.26,4.67,25.80,1022.15,2010.07,2952.90,2894.21,3125.15,349.68,342.15,32.36,0000 0000 0000 0000 000000
2014-10-01 07:34:26,0.11,1.33,0.00,28.97,33.35,36.20,4.72,25.68,1022.43,2010.02,2951.71,2893.41,3124.25,350.12,343.04,32.39,0000 0000 0000 0000 000000
2014-10-01 07:39:27,0.11,1.33,0.00,28.89,33.35,36.18,4.75,25.77,1022.47,2010.00,2950.60,2892.58,3123.34,350.58,343.32,32.42,0000 0000 0000 0000 000000
2014-10-01 07:44:28,0.08,1.34,0.00,28.85,33.36,36.12,4.69,25.87,1022.48,2010.00,2949.54,2891.87,3122.53,349.31,342.30,32.45,0000 0000 0000 0000 000000
2014-10-01 07:49:30,0.10,1.34,0.00,28.83,33.37,36.05,4.70,25.84,1022.48,2010.00,2948.40,2891.02,3121.68,349.90,343.00,32.48,0000 0000 0000 0000 000000
2014-10-01 07:54:31,0.09,1.34,0.00,28.76,33.37,36.00,4.69,25.79,1022.48,2009.96,2947.23,2890.16,3120.77,350.05,342.85,32.51,0000 0000 0000 0000 000000
2014-10-01 07:59:32,0.09,1.35,0.00,28.73,33.37,35.97,4.75,25.81,1022.48,2009.93,2946.07,2889.47,3119.90,350.51,343.55,32.54,0000 0000 0000 0000 000000
2014-10-01 08:04:33,0.08,1.35,0.00,28.73,33.37,35.91,4.72,25.79,1022.49,2009.92,2945.03,2888.86,3119.07,349.65,342.65,32.57,0000 0000 0000 0000 000000
2014-10-01 08:09:34,0.09,1.35,0.00,28.68,33.37,35.86,4.69,25.81,1022.53,2009.90,2944.15,2888.07,3118.46,350.12,343.23,32.59,0000 0000 0000 0000 000000
2014-10-01 08:14:35,0.08,1.35,0.00,28.66,33.36,35.88,4.69,25.80,1022.70,2009.89,2943.27,2887.51,3117.79,349.44,342.64,32.62,0000 0000 0000 0000 000000
2014-10-01 08:19:37,0.05,1.36,0.00,28.65,33.35,35.81,4.71,25.75,1022.74,2009.83,2942.25,2886.86,3117.01,349.67,343.06,32.65,0000 0000 0000 0000 000000
2014-10-01 08:24:38,0.10,1.36,0.00,28.61,33.35,35.75,4.78,25.86,1022.75,2009.74,2941.32,2886.08,3116.25,350.43,343.72,32.68,0000 0000 0000 0000 000000
2014-10-01 08:29:39,0.08,1.36,0.00,28.60,33.35,35.74,4.69,25.72,1022.83,2009.77,2940.35,2885.64,3115.71,349.96,343.35,32.71,0000 0000 0000 0000 000000
2014-10-01 08:34:40,0.08,1.36,0.00,28.60,33.33,35.65,4.74,25.81,1022.83,2009.85,2939.42,2885.01,3115.01,350.18,343.56,32.74,0000 0000 0000 0000 000000
2014-10-01 08:39:42,0.08,1.37,0.00,28.56,33.32,35.66,4.73,25.84,1022.93,2009.81,2938.49,2884.32,3114.25,350.30,343.70,32.77,0000 0000 0000 0000 000000
2014-10-01 08:44:43,0.06,1.37,0.00,28.55,33.32,35.65,4.72,25.79,1022.96,2009.83,2937.58,2883.87,3113.71,349.93,343.35,32.80,0000 0000 0000 0000 000000
2014-10-01 08:49:44,0.08,1.37,0.00,28.54,33.30,35.62,4.74,25.77,1022.96,2009.87,2936.74,2883.10,3113.01,350.28,343.57,32.83,0000 0000 0000 0000 000000
2014-10-01 08:54:46,0.08,1.37,0.00,28.50,33.30,35.60,4.72,25.76,1022.97,2009.89,2935.84,2882.70,3112.36,349.22,343.01,32.86,0000 0000 0000 0000 000000
2014-10-01 08:59:47,0.07,1.38,0.00,28.50,33.28,35.57,4.75,25.86,1022.98,2009.90,2934.84,2882.01,3111.85,349.68,343.17,32.89,0000 0000 0000 0000 000000
2014-10-01 09:04:48,0.08,1.38,0.00,28.50,33.27,35.54,4.69,25.89,1022.99,2009.88,2933.92,2881.39,3111.04,349.54,343.01,32.92,0000 0000 0000 0000 000000
2014-10-01 09:09:50,0.07,1.38,0.00,28.48,33.26,35.62,4.72,25.81,1023.07,2009.93,2932.99,2880.92,3110.44,349.63,343.37,32.95,0000 0000 0000 0000 000000
2014-10-01 09:14:51,0.08,1.38,0.00,28.50,33.25,35.67,4.73,25.83,1023.21,2009.93,2932.07,2880.16,3109.88,349.89,343.39,32.98,0000 0000 0000 0000 000000
2014-10-01 09:19:52,0.09,1.39,0.00,28.51,33.24,35.69,4.77,25.95,1023.33,2009.96,2931.01,2879.70,3109.03,349.98,343.56,33.01,0000 0000 0000 0000 000000
2014-10-01 09:24:53,0.08,1.39,0.00,28.58,33.22,35.55,4.71,25.92,1023.25,2009.94,2930.10,2879.03,3108.36,350.25,343.73,33.03,0000 0000 0000 0000 000000
2014-10-01 09:29:55,0.05,1.39,0.00,28.65,33.20,35.48,4.70,25.84,1023.16,2009.98,2929.21,2878.82,3107.94,349.82,343.28,33.06,0000 0000 0000 0000 000000
2014-10-01 09:34:56,0.09,1.39,0.00,28.64,33.16,35.41,4.72,25.84,1023.23,2009.99,2928.34,2878.09,3107.14,350.41,343.80,33.09,0000 0000 0000 0000 000000
2014-10-01 09:39:57,0.07,1.39,0.00,28.68,33.13,35.44,4.67,25.91,1023.26,2009.99,2927.45,2877.75,3106.72,349.87,343.25,33.12,0000 0000 0000 0000 000000
2014-10-01 09:44:58,0.07,1.40,0.00,28.68,33.10,35.53,4.69,25.82,1023.41,2009.99,2926.62,2877.08,3106.07,350.17,343.50,33.15,0000 0000 0000 0000 000000
2014-10-01 09:50:00,0.04,1.40,0.00,28.61,33.08,35.48,4.70,25.91,1023.44,2010.00,2925.83,2876.92,3105.80,350.04,343.72,33.18,0000 0000 0000 0000 000000
2014-10-01 09:55:01,0.11,1.40,0.00,28.66,33.05,35.60,4.68,25.85,1023.45,2010.11,2924.96,2876.26,3105.07,349.91,343.29,33.21,0000 0000 0000 0000 000000
2014-10-01 10:00:02,0.08,1.40,0.00,28.71,33.03,35.65,4.74,25.92,1023.45,2010.24,2924.06,2875.92,3104.56,350.49,343.90,33.24,0000 0000 0000 0000 000000
2014-10-01 10:05:03,0.13,1.41,0.00,28.66,33.02,35.63,4.72,25.83,1023.45,2010.49,2923.15,2875.15,3104.01,350.31,343.72,33.27,0000 0000 0000 0000 000000
2014-10-01 10:10:05,0.12,1.41,0.00,28.60,33.00,35.64,4.66,25.81,1023.46,2010.79,2922.17,2874.84,3103.31,349.64,343.20,33.30,0000 0000 0000 0000 000000
2014-10-01 10:15:06,0.08,1.41,0.00,28.61,33.00,35.64,4.73,25.85,1023.46,2010.92,2921.36,2874.11,3102.83,349.65,343.35,33.33,0000 0000 0000 0000 000000
2014-10-01 10:20:07,0.08,1.42,0.00,28.52,32.99,35.59,4.75,25.77,1023.48,2010.98,2920.53,2873.75,3102.09,350.13,343.75,33.36,0000 0000 0000 0000 000000
2014-10-01 10:25:08,0.07,1.42,0.00,28.51,32.97,35.53,4.72,25.77,1023.50,2010.99,2919.68,2873.04,3101.68,349.79,343.52,33.39,0000 0000 0000 0000 000000
2014-10-01 10:30:09,0.08,1.42,0.00,28.73,32.97,35.58,4.75,25.88,1023.54,2010.99,2918.66,2872.59,3100.94,350.18,343.70,33.42,0000 0000 0000 0000 000000
2014-10-01 10:35:10,0.09,1.42,0.00,28.78,32.97,35.48,4.75,25.79,1023.61,2010.99,2917.60,2871.85,3100.09,350.56,343.80,33.44,0000 0000 0000 0000 000000
2014-10-01 10:40:12,0.09,1.43,0.00,28.86,32.97,35.46,4.74,25.74,1023.90,2010.99,2916.58,2871.05,3099.27,350.18,343.55,33.47,0000 0000 0000 0000 000000
2014-10-01 10:45:13,0.11,1.43,0.00,28.90,32.97,35.51,4.77,25.80,1023.94,2010.99,2915.45,2870.32,3098.53,350.41,343.75,33.50,0000 0000 0000 0000 000000
2014-10-01 10:50:14,0.06,1.43,0.00,28.94,32.97,35.53,4.67,25.77,1023.95,2010.99,2914.51,2869.83,3097.89,350.06,343.32,33.53,0000 0000 0000 0000 000000
2014-10-01 10:55:16,0.09,1.43,0.00,29.00,32.98,35.55,4.70,25.70,1023.95,2010.99,2913.47,2869.05,3097.07,350.51,343.71,33.56,0000 0000 0000 0000 000000
2014-10-01 11:00:17,0.11,1.44,0.00,28.98,33.00,35.52,4.64,25.61,1023.96,2010.99,2912.38,2868.26,3096.27,349.85,343.08,33.59,0000 0000 0000 0000 000000
2014-10-01 11:05:18,0.08,1.44,0.00,29.03,33.00,35.59,4.69,25.62,1024.03,2010.98,2911.38,2867.75,3095.55,349.77,343.12,33.62,0000 0000 0000 0000 000000
2014-10-01 11:10:20,0.07,1.44,0.00,29.07,33.01,35.66,4.74,25.72,1024.20,2010.93,2910.17,2866.92,3094.70,350.15,343.31,33.65,0000 0000 0000 0000 000000
2014-10-01 11:15:21,0.08,1.44,0.00,29.02,33.02,35.65,4.70,25.70,1024.10,2010.77,2908.94,2866.06,3093.82,350.08,343.42,33.68,0000 0000 0000 0000 000000
2014-10-01 11:20:22,0.08,1.45,0.00,29.06,33.05,35.65,4.70,25.66,1024.06,2010.73,2907.89,2865.33,3093.01,349.98,343.17,33.71,0000 0000 0000 0000 000000
2014-10-01 11:25:24,0.07,1.45,0.00,29.06,33.06,35.67,4.67,25.69,1024.23,2010.48,2906.83,2864.64,3092.14,349.52,342.76,33.74,0000 0000 0000 0000 000000
2014-10-01 11:30:25,0.05,1.45,0.00,29.00,33.07,35.66,4.69,25.65,1024.26,2010.29,2905.70,2863.94,3091.31,350.20,343.70,33.77,0000 0000 0000 0000 000000
2014-10-01 11:35:26,0.08,1.45,0.00,29.03,33.10,35.69,4.76,25.68,1024.29,2010.09,2904.64,2863.12,3090.57,350.42,343.79,33.80,0000 0000 0000 0000 000000
2014-10-01 11:40:28,0.09,1.46,0.00,29.01,33.11,35.65,4.67,25.70,1024.35,2010.03,2903.59,2862.37,3089.75,349.72,343.13,33.83,0000 0000 0000 0000 000000
2014-10-01 11:45:29,0.06,1.46,0.00,29.00,33.12,35.59,4.73,25.70,1024.30,2010.02,2902.57,2861.85,3088.99,350.12,343.57,33.86,0000 0000 0000 0000 000000
2014-10-01 11:50:30,0.10,1.46,0.00,29.04,33.14,35.65,4.70,25.73,1024.43,2010.00,2901.51,2861.03,3088.14,350.15,343.58,33.88,0000 0000 0000 0000 000000
2014-10-01 11:55:32,0.11,1.46,0.00,29.01,33.15,35.60,4.74,25.77,1024.43,2010.00,2900.40,2860.18,3087.23,350.16,343.60,33.91,0000 0000 0000 0000 000000
2014-10-01 12:00:33,0.09,1.47,0.00,29.01,33.16,35.63,4.68,25.75,1024.43,2010.00,2899.42,2859.68,3086.66,349.77,343.16,33.94,0000 0000 0000 0000 000000
2014-10-01 12:05:34,0.06,1.47,0.00,29.03,33.17,35.72,4.70,25.71,1024.43,2010.00,2898.40,2858.97,3085.93,350.21,343.45,33.97,0000 0000 0000 0000 000000
2014-10-01 12:10:36,0.10,1.47,0.00,29.00,33.19,35.63,4.72,25.70,1024.43,2010.00,2897.37,2858.13,3085.07,350.15,343.57,34.00,0000 0000 0000 0000 000000
2014-10-01 12:15:37,0.10,1.47,0.00,28.99,33.20,35.60,4.68,25.77,1024.40,2010.00,2896.25,2857.43,3084.24,349.50,342.81,34.03,0000 0000 0000 0000 000000
2014-10-01 12:20:38,0.06,1.48,0.00,28.98,33.20,35.66,4.78,25.82,1024.42,2009.99,2895.34,2856.92,3083.63,350.06,343.54,34.06,0000 0000 0000 0000 000000
2014-10-01 12:25:40,0.09,1.48,0.00,29.02,33.22,35.60,4.70,25.75,1024.43,2009.99,2894.34,2856.10,3082.84,349.78,343.28,34.09,0000 0000 0000 0000 000000
2014-10-01 12:30:41,0.09,1.48,0.00,28.99,33.22,35.59,4.67,25.75,1024.43,2009.97,2893.24,2855.42,3082.03,349.94,343.29,34.12,0000 0000 0000 0000 000000
2014-10-01 12:35:42,0.07,1.48,0.00,28.97,33.22,35.61,4.75,25.71,1024.43,2009.94,2892.30,2854.88,3081.27,350.45,343.88,34.15,0000 0000 0000 0000 000000
2014-10-01 12:40:43,0.09,1.49,0.00,28.91,33.23,35.52,4.69,25.68,1024.43,2009.96,2891.26,2854.12,3080.58,349.71,343.16,34.18,0000 0000 0000 0000 000000
2014-10-01 12:45:45,0.09,1.49,0.00,28.93,33.25,35.54,4.75,25.74,1024.43,2009.89,2890.09,2853.32,3079.70,349.66,343.15,34.21,0000 0000 0000 0000 000000
2014-10-01 12:50:46,0.08,1.49,0.00,28.92,33.25,35.51,4.67,25.77,1024.43,2009.88,2889.02,2852.67,3078.97,349.71,343.19,34.24,0000 0000 0000 0000 000000
2014-10-01 12:55:47,0.08,1.50,0.00,28.91,33.25,35.52,4.70,25.73,1024.43,2009.89,2888.00,2852.01,3078.12,350.21,343.81,34.26,0000 0000 0000 0000 000000
2014-10-01 13:00:49,0.10,1.50,0.00,28.94,33.25,35.55,4.74,25.75,1024.43,2009.84,2887.05,2851.24,3077.38,350.05,343.33,34.29,0000 0000 0000 0000 000000